When you browse on this site, cookies collect data to enhance your experience and personalize the content and advertising you see.
Visit our Privacy Policy to learn more. By continuing to use the site, you agree to this use of cookies and data.
  • In United Kingdom
  • List of Countries
  • For 7 days
  • Water Temperature
  • Weather Map
  • Weather Widgets
  • user-avatar
    Login

    Hourly Weather Abergele

    Today, 18 September, Wednesday

    Time Temperature Precipitation Wind Pressure Humidity
    00:00 +9°C° 0 mm 1 mps 764 mmHg 92%
    01:00 +9°C° 0 mm 1 mps 764 mmHg 91%
    02:00 +9°C° 0 mm 1 mps 764 mmHg 91%
    03:00 +8°C° 0 mm 1 mps 764 mmHg 91%
    04:00 +8°C° 0 mm 1 mps 764 mmHg 90%
    05:00 +8°C° 0 mm 1 mps 764 mmHg 89%
    06:00 +8°C° 0 mm 1 mps 765 mmHg 88%
    07:00 +11°C° 0 mm 1 mps 765 mmHg 80%
    08:00 +13°C° 0 mm 1 mps 765 mmHg 73%
    09:00 +15°C° 0 mm 1 mps 765 mmHg 65%
    10:00 +16°C° 0 mm 1 mps 765 mmHg 63%
    11:00 +18°C° 0 mm 1 mps 765 mmHg 60%
    12:00 +17°C° 0 mm 2 mps 765 mmHg 57%
    13:00 +17°C° 0 mm 2 mps 765 mmHg 58%
    14:00 +17°C° 0 mm 2 mps 764 mmHg 60%
    15:00 +17°C° 0 mm 2 mps 764 mmHg 61%
    16:00 +16°C° 0 mm 2 mps 764 mmHg 68%
    17:00 +14°C° 0 mm 2 mps 764 mmHg 75%
    18:00 +13°C° 0 mm 1 mps 764 mmHg 82%
    19:00 +12°C° 0 mm 1 mps 765 mmHg 83%
    20:00 +11°C° 0 mm 1 mps 765 mmHg 85%
    21:00 +10°C° 0 mm 1 mps 765 mmHg 86%
    22:00 +10°C° 0 mm 1 mps 765 mmHg 85%
    23:00 +10°C° 0 mm 1 mps 765 mmHg 84%

    Tomorrow, 19 September, Thursday

    Time Temperature Precipitation Wind Pressure Humidity
    00:00 +10°C° 0 mm 1 mps 765 mmHg 82%
    01:00 +10°C° 0 mm 1 mps 765 mmHg 83%
    02:00 +10°C° 0 mm 1 mps 765 mmHg 83%
    03:00 +10°C° 0 mm 1 mps 765 mmHg 83%
    04:00 +10°C° 0 mm 1 mps 765 mmHg 84%
    05:00 +10°C° 0 mm 1 mps 765 mmHg 85%
    06:00 +10°C° 0 mm 1 mps 765 mmHg 85%
    07:00 +12°C° 0 mm 1 mps 765 mmHg 81%
    08:00 +13°C° 0 mm 0 mps 765 mmHg 76%
    09:00 +16°C° 0 mm 0 mps 766 mmHg 72%
    10:00 +19°C° 0 mm 1 mps 766 mmHg 69%
    11:00 +20°C° 0 mm 1 mps 765 mmHg 66%
    12:00 +21°C° 0 mm 1 mps 765 mmHg 63%
    13:00 +21°C° 0 mm 1 mps 765 mmHg 64%
    14:00 +21°C° 0 mm 1 mps 765 mmHg 66%
    15:00 +20°C° 0 mm 2 mps 765 mmHg 67%
    16:00 +19°C° 0 mm 1 mps 764 mmHg 75%
    17:00 +16°C° 0 mm 1 mps 764 mmHg 83%
    18:00 +15°C° 0 mm 1 mps 764 mmHg 91%
    19:00 +14°C° 0 mm 1 mps 764 mmHg 92%
    20:00 +13°C° 0 mm 1 mps 764 mmHg 93%
    21:00 +13°C° 0 mm 1 mps 764 mmHg 93%
    22:00 +12°C° 0 mm 1 mps 764 mmHg 93%
    23:00 +12°C° 0 mm 1 mps 764 mmHg 93%

    Day after tomorrow, 20 September, Friday

    Time Temperature Precipitation Wind Pressure Humidity
    00:00 +12°C° 0 mm 1 mps 764 mmHg 92%
    01:00 +12°C° 0 mm 2 mps 763 mmHg 92%
    02:00 +12°C° 0 mm 2 mps 763 mmHg 92%
    03:00 +12°C° 0 mm 2 mps 763 mmHg 92%
    04:00 +12°C° 0 mm 2 mps 762 mmHg 92%
    05:00 +12°C° 0 mm 2 mps 762 mmHg 92%
    06:00 +10°C° 0 mm 3 mps 761 mmHg 92%
    07:00 +12°C° 0 mm 3 mps 761 mmHg 86%
    08:00 +14°C° 0 mm 4 mps 761 mmHg 79%
    09:00 +17°C° 0 mm 4 mps 761 mmHg 73%
    10:00 +18°C° 0 mm 4 mps 761 mmHg 70%
    11:00 +17°C° 0 mm 5 mps 760 mmHg 67%
    12:00 +19°C° 0 mm 5 mps 760 mmHg 64%
    13:00 +19°C° 0 mm 5 mps 759 mmHg 64%
    14:00 +20°C° 0 mm 5 mps 758 mmHg 63%
    15:00 +20°C° 0 mm 6 mps 758 mmHg 63%
    16:00 +19°C° 0 mm 5 mps 757 mmHg 66%
    17:00 +16°C° 0 mm 5 mps 756 mmHg 70%
    18:00 +15°C° 0 mm 5 mps 756 mmHg 73%
    19:00 +14°C° 0 mm 6 mps 756 mmHg 69%
    20:00 +14°C° 0 mm 6 mps 755 mmHg 66%
    21:00 +12°C° 0 mm 7 mps 755 mmHg 62%
    22:00 +11°C° 0 mm 7 mps 755 mmHg 66%
    23:00 +10°C° 0 mm 7 mps 754 mmHg 69%

    21 September, Saturday

    Time Temperature Precipitation Wind Pressure Humidity
    00:00 +10°C° 0 mm 7 mps 754 mmHg 73%
    01:00 +10°C° 0 mm 7 mps 753 mmHg 75%
    02:00 +9°C° 0 mm 7 mps 753 mmHg 76%
    03:00 +9°C° 0 mm 7 mps 752 mmHg 78%
    04:00 +9°C° 0 mm 7 mps 751 mmHg 76%
    05:00 +9°C° 0 mm 7 mps 751 mmHg 75%
    06:00 +9°C° 0 mm 7 mps 750 mmHg 73%
    07:00 +11°C° 0 mm 7 mps 750 mmHg 70%
    08:00 +12°C° 0 mm 7 mps 750 mmHg 67%
    09:00 +13°C° 0 mm 8 mps 749 mmHg 63%
    10:00 +16°C° 0 mm 8 mps 749 mmHg 62%
    11:00 +17°C° 0 mm 7 mps 749 mmHg 60%
    12:00 +20°C° 0 mm 7 mps 748 mmHg 58%
    13:00 +20°C° 0 mm 7 mps 747 mmHg 60%
    14:00 +21°C° 0 mm 7 mps 747 mmHg 61%
    15:00 +21°C° 0 mm 7 mps 746 mmHg 63%
    16:00 +20°C° 0.1 mm 6 mps 746 mmHg 66%
    17:00 +20°C° 0.1 mm 6 mps 746 mmHg 69%
    18:00 +19°C° 0.1 mm 6 mps 745 mmHg 72%
    19:00 +19°C° 0.1 mm 6 mps 745 mmHg 74%
    20:00 +19°C° 0.1 mm 6 mps 745 mmHg 75%
    21:00 +17°C° 0.1 mm 6 mps 745 mmHg 76%
    22:00 +17°C° 0.1 mm 6 mps 744 mmHg 79%
    23:00 +17°C° 0.1 mm 6 mps 744 mmHg 81%

    22 September, Sunday

    Time Temperature Precipitation Wind Pressure Humidity
    00:00 +16°C° 0.1 mm 6 mps 743 mmHg 83%
    01:00 +16°C° 0.2 mm 5 mps 743 mmHg 85%
    02:00 +16°C° 0.2 mm 5 mps 743 mmHg 87%
    03:00 +16°C° 0.2 mm 5 mps 743 mmHg 89%
    04:00 +16°C° 0.1 mm 5 mps 743 mmHg 91%
    05:00 +15°C° 0.1 mm 4 mps 743 mmHg 94%
    06:00 +14°C° 0.1 mm 3 mps 743 mmHg 96%
    07:00 +16°C° 0 mm 3 mps 743 mmHg 91%
    08:00 +17°C° 0 mm 3 mps 744 mmHg 85%
    09:00 +17°C° 0 mm 3 mps 744 mmHg 80%
    10:00 +18°C° 0 mm 3 mps 744 mmHg 74%
    11:00 +19°C° 0 mm 3 mps 744 mmHg 67%
    12:00 +19°C° 0 mm 4 mps 744 mmHg 61%
    13:00 +19°C° 0 mm 4 mps 744 mmHg 63%
    14:00 +19°C° 0 mm 4 mps 744 mmHg 66%
    15:00 +18°C° 0 mm 3 mps 744 mmHg 68%
    16:00 +17°C° 0 mm 4 mps 744 mmHg 74%
    17:00 +15°C° 0 mm 4 mps 744 mmHg 79%
    18:00 +14°C° 0 mm 4 mps 744 mmHg 84%
    19:00 +13°C° 0 mm 4 mps 745 mmHg 85%
    20:00 +12°C° 0 mm 4 mps 746 mmHg 87%
    21:00 +12°C° 0 mm 5 mps 746 mmHg 88%
    22:00 +12°C° 0 mm 5 mps 747 mmHg 89%
    23:00 +12°C° 0 mm 5 mps 747 mmHg 89%

    23 September, Monday

    Time Temperature Precipitation Wind Pressure Humidity
    00:00 +11°C° 0 mm 6 mps 747 mmHg 90%
    01:00 +10°C° 0 mm 5 mps 747 mmHg 92%
    02:00 +10°C° 0 mm 4 mps 747 mmHg 93%
    03:00 +8°C° 0 mm 4 mps 748 mmHg 95%
    04:00 +9°C° 0 mm 3 mps 747 mmHg 95%
    05:00 +9°C° 0 mm 3 mps 747 mmHg 95%
    06:00 +8°C° 0 mm 3 mps 747 mmHg 95%
    07:00 +10°C° 0 mm 3 mps 747 mmHg 89%
    08:00 +12°C° 0 mm 4 mps 747 mmHg 84%
    09:00 +13°C° 0 mm 4 mps 747 mmHg 79%
    10:00 +14°C° 0 mm 4 mps 747 mmHg 78%
    11:00 +15°C° 0 mm 5 mps 746 mmHg 77%
    12:00 +16°C° 0 mm 5 mps 746 mmHg 76%
    13:00 +16°C° 0.2 mm 5 mps 746 mmHg 79%
    14:00 +15°C° 0.2 mm 5 mps 745 mmHg 83%
    15:00 +15°C° 0.2 mm 5 mps 745 mmHg 87%
    16:00 +15°C° 0.1 mm 5 mps 745 mmHg 89%
    17:00 +15°C° 0.1 mm 4 mps 745 mmHg 91%
    18:00 +15°C° 0.1 mm 4 mps 745 mmHg 93%
    19:00 +15°C° 0 mm 4 mps 745 mmHg 94%
    20:00 +15°C° 0 mm 4 mps 745 mmHg 94%
    21:00 +14°C° 0 mm 4 mps 746 mmHg 95%
    22:00 +14°C° 0 mm 4 mps 746 mmHg 94%
    23:00 +14°C° 0 mm 4 mps 746 mmHg 94%
    Show more